Location: Boiro
(42.6475°N, 8.8834°W)
Time: 06:01:02
(UTC+01:00)

Vanguard 1 - Pass Details

Date: 30 November 2021
Orbit: 652 x 3830 km, 34.2° (Epoch: 21 January)

Event Time Altitude Azimuth Distance (km) Brightness Sun altitude
Rises 02:22:42 0° 234° (SW) 7,589 - -65.7°
Reaches altitude 10° 02:27:44 10° 231° (SW) 6,763 - -65.2°
Maximum altitude 02:50:12 57° 160° (SSE) 4,057 - -62.4°
Exits shadow 02:58:00 42° 111° (ESE) 4,218 13.1 -61.3°
Drops below altitude 10° 03:07:56 10° 89° (E) 5,514 14.1 -59.9°
Sets 03:11:30 0° 85° (E) 6,181 14.5 -59.3°
